Tracking 19709 objects as of 19-Jun-2019
HD Live streaming from Space Station
objects crossing your sky now

CZ-4 DEB

Track CZ-4 DEB now!
10-day predictions


NORAD ID: 28072
Int'l Code: 1999-057NC
Perigee: 691.8 km
Apogee: 832.7 km
Inclination: 98.7 °
Period: 99.9 minutes
Semi major axis: 7133 km
RCS: 0.014 m2 (small)
Launch date: October 14, 1999
Source: People's Republic of China (PRC)
Launch site: Taiyaun Space Center, China (TSC)

Note: This is SATELLITE DEBRIS
aabbcc
Your satellite tracking list
Your tracking list is empty




NASA's NSSDC Master Catalog

Two Line Element Set (TLE):
1 28072U 99057NC  19170.13346263  .00000109  00000-0  45874-4 0  9997
2 28072  98.6810 149.3757 0098803 113.8153 310.7567 14.41024361852447
Source of the keplerian elements: AFSPC